Wind_Speed
39 37 49 45 36 31 26 25 19 16 17 16 17 21 29 35 32 36 34 34 35 22 14 14 7 16 29 29 38 63 66 69 71 64 63 64 64 65 70 63 66 67 64 66
37 39 52 41 35 36 32 29 28 21 21 21 24 21 29 31 28 31 34 32 33 31 17 12 10 7 18 22 30 33 48 60 74 70 71 70 68 69 68 70 77 68 67 67
44 46 47 44 32 39 33 35 27 22 18 22 20 21 27 29 26 29 30 34 33 36 29 15 12 15 15 15 17 22 25 36 51 68 68 78 79 73 70 62 65 67 67 68
48 50 48 43 39 41 37 33 33 27 24 24 20 24 24 24 26 28 28 31 35 35 34 23 16 12 14 14 18 20 24 27 30 39 53 58 72 79 67 55 62 66 66 61
51 57 52 46 47 38 42 33 34 28 24 26 25 21 28 25 25 28 27 31 30 34 36 30 21 16 13 14 19 23 23 23 25 26 32 33 34 40 45 43 42 46 45 49
54 59 55 49 52 41 45 39 38 36 27 24 31 27 32 26 27 26 27 28 29 30 37 34 27 19 16 16 15 23 25 25 26 23 22 25 26 27 28 30 30 31 30 35
57 57 57 54 53 48 48 47 42 36 31 30 35 25 34 24 28 26 25 29 31 32 34 37 30 27 18 16 16 17 20 28 27 30 25 22 24 24 24 27 27 28 35 36
57 57 55 54 53 52 49 47 42 42 37 36 36 27 36 27 31 29 25 28 28 29 34 34 32 28 24 19 16 16 18 25 33 31 30 27 29 33 33 33 34 30 32 35
61 60 59 56 56 54 50 48 49 48 39 36 36 32 38 33 31 30 27 28 29 27 32 31 31 28 27 23 19 18 19 23 25 27 33 32 30 30 31 33 39 40 37 35
62 61 62 63 62 62 57 55 53 48 40 39 38 39 41 41 32 30 26 31 31 32 31 32 31 29 28 23 21 19 19 23 24 27 26 28 32 30 28 25 24 25 28 28
71 66 65 66 65 62 59 58 56 52 43 40 41 41 47 46 35 29 30 32 33 32 31 32 34 27 29 26 20 21 20 22 26 27 28 27 29 32 31 28 29 27 26 31
74 71 65 65 66 66 63 59 57 50 44 41 39 38 51 49 40 34 33 34 36 35 34 34 32 32 29 31 27 20 21 22 26 28 30 32 32 34 34 34 31 32 27 39
75 76 74 73 70 68 68 65 61 54 48 40 38 40 51 49 42 38 38 37 39 36 37 36 33 33 33 28 30 28 22 19 20 31 36 38 38 40 41 43 42 36 36 40
80 75 72 72 74 73 69 67 63 61 55 50 39 47 52 50 48 46 42 41 37 34 40 41 38 34 36 31 31 33 28 19 18 19 34 42 43 43 45 47 45 39 41 43
84 80 80 81 79 78 75 71 69 65 59 52 52 52 57 58 54 50 45 43 38 37 40 43 45 41 39 38 35 32 36 30 22 18 19 29 40 43 45 45 45 47 45 47
85 85 85 81 82 81 81 82 76 74 75 71 71 63 57 57 58 54 52 48 41 41 43 45 49 43 41 42 39 36 35 34 33 28 22 19 20 31 40 45 46 45 48 48
84 85 86 84 85 85 83 87 86 81 79 79 76 72 71 67 68 63 55 51 45 44 47 51 52 51 45 48 44 38 38 35 33 35 33 28 25 22 24 35 43 47 49 53
89 90 90 86 90 90 82 91 91 88 84 84 82 80 77 76 76 76 71 66 62 51 51 58 58 57 51 48 47 43 42 39 38 37 37 36 32 32 30 31 31 32 34 38
83 86 89 91 97 88 89 92 92 94 87 89 86 85 83 77 73 67 70 71 67 59 53 61 63 61 56 51 54 47 46 45 46 45 42 40 38 38 37 39 37 39 40 40
76 81 85 86 88 89 95 100 99 98 88 92 89 85 80 78 75 68 69 71 62 58 54 63 65 62 60 54 57 55 49 50 51 49 44 44 45 44 43 44 45 46 46 48
73 75 78 79 84 84 86 94 102 101 99 98 97 91 88 81 76 74 73 69 63 57 58 59 66 66 60 58 60 60 63 57 54 52 47 42 48 52 50 51 50 50 52 54
73 74 76 77 77 75 80 84 87 91 88 84 87 87 85 79 75 73 74 71 68 66 59 62 65 68 66 63 63 62 61 60 57 54 55 49 51 52 54 57 58 57 57 58
67 71 73 75 74 75 76 78 78 79 81 82 80 84 84 80 76 74 74 74 72 71 64 66 67 66 65 64 63 63 63 62 60 60 57 55 59 62 64 63 63 63 62 64
63 67 68 69 66 68 71 77 80 75 73 74 74 76 79 79 78 78 78 77 76 75 69 72 73 70 70 71 73 72 72 69 66 57 57 59 64 66 67 68 68 69 71 72
59 61 60 59 61 63 68 72 73 74 73 72 72 73 76 77 79 81 81 79 80 79 77 72 75 75 72 71 71 72 72 72 68 64 63 66 70 74 75 78 76 76 77 78
61 59 57 51 58 61 64 65 66 70 70 74 73 72 76 73 78 76 77 76 78 79 78 73 75 74 76 75 74 75 74 74 71 70 72 70 72 77 80 78 80 81 82 83
Wind_Direction
241 245 241 249 258 256 261 259 277 294 296 318 332 332 338 343 358 354 349 344 339 324 320 320 280 254 260 249 244 237 238 237 237 233 239 238 238 245 244 250 253 255 259 260
239 237 240 250 255 260 264 266 268 278 294 314 319 323 333 339 353 350 351 346 340 339 315 302 282 266 266 247 240 244 243 242 237 243 241 240 242 244 253 253 251 255 255 259
231 235 242 248 250 253 264 266 263 269 280 300 319 315 329 328 339 349 349 350 340 337 338 310 279 275 275 287 253 249 255 247 244 238 243 240 245 250 254 251 251 255 258 258
229 238 242 244 247 252 263 260 266 265 279 282 296 307 321 325 329 339 340 347 346 336 339 336 306 290 280 284 266 249 252 255 252 243 242 245 246 250 248 248 252 252 253 257
233 236 235 243 251 251 260 254 253 266 263 280 283 295 306 313 320 326 332 344 346 343 332 339 334 307 285 273 265 245 242 248 247 246 242 240 243 243 244 247 249 250 252 253
237 241 243 245 247 249 253 256 251 263 253 269 276 287 296 302 316 324 323 334 341 342 341 333 338 334 305 280 263 252 237 234 234 237 243 243 244 236 236 244 244 244 246 245
235 240 240 238 244 246 249 252 253 259 255 253 266 290 285 296 308 313 316 323 331 343 347 334 338 340 335 306 280 261 249 230 233 227 232 233 233 235 237 238 241 239 237 245
229 236 240 245 244 244 247 251 252 252 254 258 276 281 281 292 296 309 298 308 324 333 343 333 326 338 343 334 297 269 262 246 235 236 238 239 235 236 235 239 248 245 252 256
236 234 237 242 245 248 253 253 250 253 265 272 276 271 275 278 288 295 292 302 315 319 335 330 326 328 334 337 326 292 263 250 249 241 242 244 246 248 246 254 256 258 260 257
235 235 240 242 245 251 253 253 257 258 262 261 268 265 271 275 283 281 284 296 305 315 318 327 326 325 325 333 332 321 278 251 242 243 237 239 242 241 243 246 250 253 257 265
233 232 240 241 244 248 250 253 255 254 254 261 258 259 266 267 279 274 278 292 296 305 306 311 325 315 317 317 329 334 313 275 251 241 244 245 245 243 240 239 242 246 258 261
233 234 237 245 246 248 247 248 252 254 255 260 248 256 264 262 274 272 276 280 287 297 299 304 311 318 307 312 315 330 330 299 269 247 239 242 246 242 236 232 234 246 257 277
237 237 239 244 246 247 247 247 246 249 249 250 237 249 252 258 262 269 271 273 281 291 293 295 299 307 308 304 307 310 321 324 283 258 249 238 236 243 239 236 234 242 262 268
236 235 238 245 247 248 250 254 256 259 260 245 233 231 247 255 261 267 270 275 280 286 288 288 289 297 300 294 299 300 304 313 328 288 261 262 254 248 248 252 246 249 262 266
239 241 238 237 242 248 250 249 249 249 248 244 233 236 253 258 260 266 269 271 274 280 276 275 280 287 291 286 291 296 296 300 301 314 301 274 269 268 262 264 263 262 264 269
239 242 242 241 240 244 249 249 246 248 246 244 247 252 252 255 260 262 266 264 268 266 271 273 274 277 282 280 281 288 290 295 299 299 306 300 286 271 267 267 270 270 271 272
237 240 241 241 244 243 242 249 248 247 249 250 248 246 249 256 262 262 260 261 266 267 263 269 269 269 270 282 276 279 284 289 293 296 300 302 298 293 285 276 275 276 278 278
238 239 239 241 243 243 242 245 249 248 246 248 248 250 256 260 263 263 264 265 267 265 261 263 265 267 266 278 271 270 275 280 285 289 292 295 299 294 295 298 292 287 285 285
244 245 245 241 241 243 243 246 246 249 249 250 250 252 256 256 254 260 265 267 264 262 254 258 261 262 262 270 273 267 269 274 278 285 287 286 287 285 288 293 290 289 288 287
244 244 244 244 245 241 238 244 246 247 246 252 252 254 254 257 262 262 259 258 259 263 251 252 255 257 260 264 271 267 272 271 272 279 282 283 282 280 285 288 289 283 282 284
243 245 245 243 244 244 242 239 244 247 247 247 250 251 254 253 257 260 257 257 257 259 249 252 256 259 258 259 266 262 267 268 271 273 280 281 277 277 279 281 283 283 282 281
243 242 243 244 243 241 243 244 244 245 247 244 248 249 249 249 249 249 255 258 259 261 256 250 251 252 256 259 262 261 264 269 270 272 276 278 279 280 282 282 280 282 281 284
243 244 244 244 244 243 241 244 246 243 245 243 241 244 244 244 246 248 250 253 257 259 257 252 253 252 253 258 258 262 264 265 269 275 272 274 276 278 278 281 280 281 281 283
243 244 245 245 245 243 242 242 242 244 243 243 241 240 242 243 244 245 248 249 253 256 253 249 253 256 255 253 256 261 265 266 268 271 273 277 275 274 276 279 280 279 281 281
248 247 244 244 244 242 240 240 241 242 242 241 240 237 238 241 241 242 244 248 249 251 252 249 249 254 255 255 257 260 261 262 266 269 272 272 274 272 274 276 279 278 279 280
247 249 249 242 241 242 240 241 239 240 241 240 241 240 240 240 241 242 242 242 245 247 248 249 249 252 254 255 256 258 259 261 264 266 269 267 268 271 274 274 275 275 277 278
Height
10618 10624 10620 10626 10631 10632 10633 10634 10635 10637 10639 10638 10636 10633 10631 10629 10622 10618 10614 10610 10607 10599 10594 10593 10592 10595 10596 10597 10598 10599 10603 10606 10611 10616 10622 10624 10628 10632 10637 10639 10641 10643 10645 10647
10614 10617 10608 10619 10624 10624 10625 10627 10628 10631 10632 10632 10632 10628 10625 10625 10619 10616 10612 10610 10606 10601 10595 10591 10590 10591 10591 10591 10591 10592 10594 10596 10601 10607 10612 10616 10620 10625 10628 10631 10632 10635 10636 10637
10601 10599 10603 10610 10617 10617 10617 10618 10621 10624 10627 10627 10627 10624 10621 10620 10618 10615 10610 10607 10603 10599 10594 10589 10586 10586 10587 10586 10585 10585 10586 10588 10592 10597 10601 10605 10610 10615 10618 10620 10620 10623 10624 10626
10591 10591 10594 10600 10607 10608 10609 10611 10616 10617 10618 10620 10623 10621 10620 10618 10615 10613 10610 10605 10602 10597 10592 10586 10582 10580 10579 10579 10580 10580 10582 10583 10583 10586 10592 10596 10602 10605 10609 10609 10612 10616 10616 10619
10581 10573 10582 10592 10591 10601 10598 10605 10609 10610 10613 10613 10615 10617 10615 10613 10612 10609 10606 10602 10600 10596 10591 10585 10579 10576 10574 10574 10574 10575 10577 10579 10580 10581 10584 10588 10591 10593 10597 10599 10603 10606 10608 10610
10567 10565 10575 10582 10579 10591 10589 10595 10600 10603 10605 10608 10605 10612 10606 10605 10605 10603 10601 10598 10596 10593 10589 10584 10580 10574 10572 10570 10570 10570 10572 10574 10576 10576 10577 10581 10583 10586 10589 10591 10595 10598 10600 10602
10551 10553 10558 10566 10569 10578 10581 10583 10592 10596 10598 10599 10599 10606 10598 10601 10598 10598 10597 10594 10592 10589 10585 10582 10578 10573 10569 10566 10565 10565 10566 10569 10570 10572 10573 10576 10578 10580 10584 10586 10589 10591 10593 10596
10539 10542 10548 10555 10559 10562 10568 10573 10583 10587 10589 10591 10593 10600 10591 10596 10590 10592 10591 10590 10587 10584 10582 10580 10577 10573 10567 10563 10561 10559 10560 10563 10564 10566 10568 10571 10574 10576 10578 10579 10579 10581 10584 10585
10525 10531 10535 10540 10543 10551 10559 10566 10567 10575 10582 10585 10586 10590 10585 10587 10585 10583 10584 10584 10583 10581 10578 10577 10576 10572 10566 10561 10557 10554 10554 10556 10559 10559 10562 10564 10566 10567 10568 10570 10571 10573 10575 10575
10513 10521 10523 10528 10534 10539 10547 10551 10557 10566 10572 10576 10579 10580 10579 10578 10580 10576 10576 10575 10577 10576 10574 10573 10571 10569 10566 10561 10555 10551 10550 10550 10551 10553 10555 10556 10557 10559 10560 10561 10562 10564 10565 10566
10494 10505 10509 10515 10524 10527 10532 10537 10544 10550 10560 10566 10571 10572 10566 10567 10572 10572 10567 10567 10567 10568 10569 10567 10566 10565 10564 10561 10556 10549 10545 10544 10544 10546 10548 10550 10551 10552 10552 10552 10554 10554 10556 10556
10481 10493 10498 10501 10506 10511 10517 10523 10528 10539 10549 10556 10562 10567 10557 10557 10561 10562 10562 10559 10559 10560 10560 10559 10558 10558 10557 10556 10553 10549 10543 10539 10538 10540 10540 10542 10543 10544 10543 10542 10541 10543 10543 10544
10467 10476 10485 10486 10487 10493 10499 10509 10516 10526 10537 10548 10550 10558 10543 10546 10549 10551 10552 10553 10550 10551 10552 10552 10550 10549 10549 10548 10547 10546 10542 10537 10533 10532 10531 10532 10533 10533 10532 10530 10530 10531 10532 10532
10452 10462 10470 10474 10474 10479 10492 10500 10506 10510 10522 10526 10538 10538 10536 10533 10535 10540 10543 10544 10545 10545 10543 10542 10542 10541 10541 10540 10539 10539 10539 10535 10531 10526 10524 10521 10523 10525 10524 10525 10524 10522 10521 10520
10433 10444 10451 10457 10463 10466 10476 10485 10488 10497 10504 10512 10521 10526 10526 10521 10523 10528 10533 10535 10537 10537 10536 10536 10535 10535 10532 10532 10532 10529 10530 10529 10528 10525 10520 10517 10515 10514 10515 10516 10519 10516 10515 10514
10414 10425 10431 10439 10446 10453 10458 10463 10475 10482 10489 10502 10507 10514 10513 10510 10510 10518 10521 10524 10527 10526 10526 10526 10525 10528 10526 10524 10524 10522 10520 10519 10518 10517 10516 10513 10510 10508 10507 10506 10505 10505 10505 10505
10397 10404 10411 10423 10424 10434 10446 10443 10449 10464 10473 10481 10491 10495 10496 10501 10499 10506 10511 10512 10515 10516 10515 10513 10513 10514 10516 10515 10514 10515 10512 10510 10508 10508 10506 10506 10504 10502 10501 10499 10497 10495 10494 10492
10377 10382 10392 10403 10402 10407 10435 10424 10430 10438 10453 10459 10470 10477 10483 10487 10486 10489 10495 10498 10500 10502 10503 10501 10499 10501 10503 10504 10504 10504 10504 10503 10501 10500 10499 10497 10495 10494 10493 10492 10489 10487 10486 10484
10356 10362 10368 10377 10382 10401 10413 10407 10410 10413 10434 10432 10447 10454 10460 10463 10468 10481 10481 10483 10484 10486 10488 10489 10487 10489 10492 10492 10492 10492 10492 10492 10492 10491 10490 10488 10486 10484 10482 10481 10479 10476 10474 10472
10334 10338 10343 10353 10357 10369 10391 10383 10382 10387 10416 10407 10422 10433 10441 10445 10459 10471 10459 10458 10468 10473 10474 10474 10474 10476 10479 10480 10480 10477 10479 10480 10480 10480 10480 10478 10476 10473 10470 10468 10466 10465 10463 10461
10311 10316 10322 10328 10333 10347 10357 10359 10356 10369 10386 10396 10399 10412 10418 10427 10436 10444 10441 10444 10451 10455 10458 10462 10463 10465 10466 10467 10468 10468 10464 10466 10466 10467 10466 10465 10463 10461 10459 10457 10454 10451 10448 10445
10289 10296 10302 10306 10315 10331 10330 10335 10341 10347 10359 10377 10379 10386 10397 10406 10413 10421 10426 10429 10432 10436 10442 10445 10447 10449 10452 10454 10452 10452 10452 10453 10452 10452 10451 10451 10449 10447 10445 10442 10440 10437 10434 10430
10275 10276 10281 10289 10302 10308 10314 10317 10322 10330 10337 10346 10360 10363 10373 10383 10394 10402 10407 10412 10416 10420 10423 10427 10430 10435 10437 10439 10437 10435 10437 10439 10440 10437 10435 10434 10432 10430 10427 10425 10421 10418 10414 10411
10256 10257 10266 10270 10284 10290 10295 10296 10300 10311 10320 10329 10340 10346 10353 10363 10372 10379 10385 10391 10397 10401 10406 10410 10414 10418 10421 10420 10420 10421 10422 10422 10423 10421 10420 10418 10415 10413 10409 10405 10401 10398 10395 10391
10235 10240 10249 10260 10265 10268 10271 10274 10284 10293 10301 10310 10319 10329 10333 10342 10350 10357 10364 10370 10376 10381 10385 10392 10396 10400 10401 10401 10402 10402 10402 10401 10402 10404 10402 10400 10397 10394 10391 10388 10385 10380 10376 10372
10220 10227 10231 10245 10246 10249 10252 10258 10270 10276 10286 10292 10299 10308 10315 10324 10327 10337 10343 10348 10354 10359 10364 10372 10378 10380 10381 10384 10384 10384 10383 10383 10384 10383 10382 10381 10378 10375 10371 10367 10364 10360 10356 10351